This demonstration page uses our WeatherBlox Daily Observations layout. Learn more.

Left ArrowRight Arrow

Hourly Observations for May 20, 2022

Temp ( °F °C ) Dew Point ( °F °C ) Humidity (%) Winds ( mph kmh ) Pressure ( in mb ) Visibility ( mi km ) Precip ( " mm )
12:53 am 00:53 Clear 65 18.3 62 16.7 90 90 VRB 5 7 29.64 1004 10 16 0.00 0.00
1:53 am 01:53 Mostly Clear 66 18.9 62 16.7 87 87 VRB 5 7 29.63 1003 10 16 0.00 0.00
2:53 am 02:53 Mostly Cloudy with Light Rain 67 19.4 63 17.2 87 87 VRB 5 7 29.62 1003 10 16 0.01 0.25
3:53 am 03:53 Cloudy with Light Rain 67 19.4 64 17.8 91 91 Calm 29.60 1002 10 16 0.05 1.27
4:09 am 04:09 Cloudy with Heavy Rain 67 19.4 65 18.3 93 93 W 6 9 29.64 1004 2 3 0.21 5.33
4:13 am 04:13 Cloudy with Strong Thunderstorms 66 18.9 65 18.3 96 96 VRB 3 6 29.64 1004 1 2 0.25 6.35
4:19 am 04:19 Cloudy with Thunderstorms 67 19.4 65 18.3 93 93 VRB 3 6 29.64 1004 2 3 0.27 6.86
4:28 am 04:28 Cloudy with Nearby Thunderstorms 67 19.4 65 18.3 93 93 SW 8 13 29.63 1003 4 6 0.29 7.37
4:35 am 04:35 Cloudy with Nearby Thunderstorms 67 19.4 65 18.3 93 93 SW 8 13 29.64 1004 5 8 0.31 7.87
4:53 am 04:53 Cloudy with Thunderstorms 67 19.4 64 17.8 91 91 SW 8 13 29.63 1003 6 10 0.37 9.40
5:19 am 05:19 Cloudy with Strong Thunderstorms 66 18.9 64 17.8 93 93 VRB 7 11 29.65 1004 2 3 0.16 4.06
5:30 am 05:30 Cloudy with Strong Thunderstorms 66 18.9 64 17.8 93 93 VRB 5 7 29.66 1004 2 2 0.30 7.62
5:48 am 05:48 Cloudy with Strong Thunderstorms 64 18 64 18 100 100 VRB 6 9 29.67 1005 1 1 0.74 18.80
5:53 am 05:53 Cloudy with Strong Thunderstorms 65 18.3 64 17.8 97 97 WSW 8 13 29.69 1006 1 1 0.88 22.35
6:12 am 06:12 Cloudy with Strong Thunderstorms 65 18.3 64 17.8 97 97 VRB 5 7 29.67 1005 2 3 0.49 12.45
6:15 am 06:15 Cloudy with Thunderstorms 65 18.3 64 17.8 97 97 Calm 29.68 1005 3 5 0.49 12.45
6:28 am 06:28 Cloudy with Thunderstorms 65 18.3 64 17.8 97 97 N 7 11 29.70 1006 10 16 0.49 12.45
6:35 am 06:35 Cloudy with Nearby Thunderstorms 65 18.3 64 17.8 97 97 NNW 5 7 29.70 1006 10 16 0.49 12.45
6:53 am 06:53 Cloudy 65 18.3 64 17.8 97 97 ESE 5 7 29.68 1005 10 16 0.49 12.45
7:53 am 07:53 Mostly Sunny 66 18.9 65 18.3 96 96 VRB 3 6 29.68 1005 10 16 0.00 0.00
8:53 am 08:53 Sunny 70 21.1 66 18.9 87 87 VRB 5 7 29.69 1005 10 16 0.00 0.00
9:53 am 09:53 Sunny 76 24.4 68 20 77 77 VRB 7 11 29.70 1006 10 16 0.00 0.00
10:53 am 10:53 Sunny 78 25.6 68 20 71 71 SW 9 15 29.70 1006 10 16 0.00 0.00
11:53 am 11:53 Sunny 80 26.7 66 18.9 62 62 SW 8 13 29.72 1006 10 16 0.00 0.00
12:53 pm 12:53 Sunny 82 27.8 66 18.9 58 58 VRB 7 11 29.73 1007 10 16 0.00 0.00
1:53 pm 13:53 Sunny 85 29.4 62 16.7 46 46 SW 8 13 29.72 1007 10 16 0.00 0.00
2:53 pm 14:53 Sunny 86 30 62 16.7 45 45 SSW 14 22 29.71 1006 10 16 0.00 0.00
3:53 pm 15:53 Sunny 87 30.6 63 17.2 45 45 S 10 17 29.71 1006 10 16 0.00 0.00
4:53 pm 16:53 Sunny 87 30.6 63 17.2 45 45 SSW 9 15 29.70 1006 10 16 0.00 0.00
5:53 pm 17:53 Sunny 87 30.6 64 17.8 46 46 VRB 7 11 29.71 1006 10 16 0.00 0.00
6:53 pm 18:53 Sunny 86 30 65 18.3 49 49 SSW 8 13 29.72 1006 10 16 0.00 0.00
7:53 pm 19:53 Sunny 85 29.4 64 17.8 50 50 SSW 8 13 29.74 1007 10 16 0.00 0.00
8:53 pm 20:53 Clear 83 28.3 64 17.8 53 53 VRB 6 9 29.75 1008 10 16 0.00 0.00
9:53 pm 21:53 Clear 81 27.2 65 18.3 58 58 VRB 3 6 29.78 1009 10 16 0.00 0.00
10:53 pm 22:53 Clear 80 26.7 64 17.8 58 58 VRB 3 6 29.81 1009 10 16 0.00 0.00
11:53 pm 23:53 Clear 78 25.6 64 17.8 62 62 Calm 29.83 1010 10 16 0.00 0.00

Powered by AerisWeather